sat.trackr.live / text

‹ back to catalog

STARLINK-31716

NORAD 59377 · 2024-062D

PAYLOAD ACTIVE UNKNOWN

§ Identity

Operator
Country
US
Launch date
2024-04-02
Launch site
AFWTR
Launch vehicle
Mass (kg)
RCS (m²)

Purposes: comms

External: N2YO · Heavens-Above · Gunter

§ Orbital elements

Epoch: 2026-05-25T05:17:42.157248Z

Period
94.11 min
Inclination
53.1592°
Eccentricity
0.0000848
Mean motion
15.30194936 rev/d
Perigee alt
474.6 km
Apogee alt
475.8 km
Semi-major
6,853.4 km
B*
2.1602e-5
RAAN
211.5375°
Arg perigee
99.1150°
Mean anomaly
260.9946°
Rev number
12,202

§ Raw data

STARLINK-317161 59377U 24062D   26145.22062682  .00000281  00000+0  21602-4 0  99962 59377  53.1592 211.5375 0000848  99.1150 260.9946 15.30194936122021

JSON: /api/v1/satellites/59377 · /tle

For live sub-satellite position, see the globe view (requires WebGL).

§ Visibility from observer

Set your observer location to see the next 7 days of passes ≥ 10°. The values pass through the URL so the page stays shareable.

No JS? Fill the form by hand. The geolocation button needs JavaScript.